Retour au catalogue

COSMOS 2499 DEB

ActifPO
NORAD 49943·DEBRIS·🇷🇺 Russia

Lancé May 23, 2014 depuis Plesetsk Cosmodrome

Loading…

Prochains Passages (prochaines 24 heures)

TLE

FraisSource: Space-Track

Époque: Sep 14, 2026, 02:32 UTC

1 49943U 14028AA  26257.10616860  .00005304  00000-0  13229-1 0  9994
2 49943  82.5075 178.5018 0333759  36.8524 325.5030 13.01569868229576

Suivez COSMOS 2499 DEB en temps réel avec AllMySat

Download on the App Store